DECAYED

STARLINK-2244, 48588 (Decayed)

Orbit data source: Space-Track

STARLINK-2244, 48588 was a payload satellite owned by SpaceX/Seattle (US) in LEO that was launched on Sat, 15 May 2021 UTC via an FALCON 9 launch vehicle from the Air Force Eastern Test Range (AFETR). Payload-class satellites include a variety of spacecraft equipped with specific instruments for various scientific and technological missions. These include communications satellites like Starlink; space stations such as the ISS; scientific satellites like the Hubble; Earth observation satellites from companies like Planet Labs, Umbra, and HawkEye 360; GPS; miniature CubeSats for education and research; and military/defense satellites.

Not visible in the next 10 days
Identifier
48588, 2021-041AM
Orbit
Decayed
Country
Flag of USUS
Related business
Manufacturer
SpaceX/Seattle
Mission
Decayed Commercial Communications
Bus & Motor
STARLINK, Unknown motor
Mass
260 kg wet, ~248 kg dry
Launch date (UTC)
2021-05-15 (5 years ago)
Launch vehicle
FALCON 9
Launch site
Air Force Eastern Test Range (AFETR)
Object type
Payload
Rocket body
Debris
Shape & HBR
Box + 1 Pan, 10.1 m
Radar Cross Section
13.562 m², Large (>1 m²)

Expand to show TLE details & history
Last TLE update: 11 months ago

TLE from 11 months ago
0 STARLINK-2244
1 48588U 21041AM  25005.20139208  .73812982  12722-4  49433-3 0  9992
2 48588  53.0169 236.4786 0002384 119.5242 342.6857 16.53336963201324
Epoch: 2025-01-05T04:50Z
TLE epoch observation values (Epoch: 2025-01-05T04:50:00.275Z)
Latitude
51.48896°
Longitude
168.73005°
Altitude
135.169 km
Speed
7.832 km/s
True Right ascension
23h 05m 05s
True Declination
51° 18' 19"
Sunlit
Object was in daylight at epoch
Visualization orbit readout
Latitude
Unknown
Longitude
Unknown
Altitude
Unknown
Speed
Unknown
Apparent Right ascension
Unknown
Apparent Declination
Unknown
Sunlit
N/A
Visualization observer readout
Local Sidereal Time
00:24:24
Azimuth
Unknown
Elevation
Unknown
Doppler factor
Unknown
Orbital elements
Apogee altitude
132.409 km
Perigee altitude
129.305 km
Semi-major axis
6,508.994 km
Eccentricity
0.00024
Inclination
53.0169°
RAAN
236.4786°
Arg. of periapsis
119.5242°
True anomaly
342.67757°
Mean anomaly
342.6857°
Eccentric anomaly
342.68163°
Mean motion
4.13307 °/min
Orbital period
87.1 mins
BSTAR
0.00049433
Loading maneuver chart data...
Computing Atmospheric mass density...
Loading historical data...
Loading historical data...
Loading historical data...
Loading historical data...
Loading historical data...
Loading historical data...
Loading historical data...

Documentation

Showing up to 5 results
|